Powrót do katalogu

STARLINK-37531

AktywnyŁącznośćSSO
NORAD 69136·PAYLOAD·🇺🇸 United States

Wystrzelony May 20, 2026 z Vandenberg Space Force Base

Loading…

Następne Przeloty (najbliższe 24 godziny)

TLE

ŚwieżeSource: CelesTrak SupGP

Epoka: Sep 15, 2026, 03:12 UTC

1 69136C 26110N   26258.13381944 -.00046708  00000+0 -14497-2 0  2582
2 69136  97.2852  93.2745 0001766  95.1440 281.8696 15.33466804    14

Śledź STARLINK-37531 w czasie rzeczywistym z AllMySat

Download on the App Store